| time (UTC) | temp C | wind direction | speed KPH | gust KPH | rain 1hr cm | rain 24hr cm | rain mn cm | humidity % | barometer mb |
| 20260906022806 | 25 | 92 | 1.6 | 1.6 | 0.00 | 0.00 | 0.00 | 83 | 1013.5 |
| 20260906022307 | 25 | 52 | 1.6 | 1.6 | 0.00 | 0.00 | 0.00 | 83 | 1013.5 |
| 20260906021806 | 25 | 278 | 0.0 | 1.6 | 0.00 | 0.00 | 0.00 | 84 | 1013.4 |
| 20260906021305 | 25 | 134 | 0.0 | 1.6 | 0.00 | 0.00 | 0.00 | 83 | 1013.4 |
| 20260906020805 | 25 | 279 | 0.0 | 1.6 | 0.00 | 0.00 | 0.00 | 82 | 1013.2 |
| 20260906015806 | 25 | 253 | 0.0 | 3.2 | 0.00 | 0.00 | 0.00 | 83 | 1013.2 |
| 20260906015306 | 25 | 215 | 1.6 | 3.2 | 0.00 | 0.00 | 0.00 | 83 | 1013.1 |
| 20260906014806 | 25 | 141 | 1.6 | 1.6 | 0.00 | 0.00 | 0.00 | 82 | 1013.0 |
| 20260906014305 | 25 | 118 | 1.6 | 1.6 | 0.00 | 0.00 | 0.00 | 80 | 1012.8 |
| 20260906013805 | 25 | 46 | 1.6 | 1.6 | 0.00 | 0.00 | 0.00 | 80 | 1012.6 |
| 20260906013306 | 25 | 114 | 1.6 | 1.6 | 0.00 | 0.00 | 0.00 | 79 | 1012.5 |
| 20260906012806 | 25 | 125 | 0.0 | 0.0 | 0.00 | 0.00 | 0.00 | 79 | 1012.3 |
| 20260906012306 | 25 | 92 | 0.0 | 0.0 | 0.00 | 0.00 | 0.00 | 80 | 1012.4 |
| 20260906011806 | 25 | 90 | 0.0 | 1.6 | 0.00 | 0.00 | 0.00 | 80 | 1012.5 |
| 20260906011305 | 25 | 158 | 0.0 | 1.6 | 0.00 | 0.00 | 0.00 | 79 | 1012.5 |
| 20260906010806 | 25 | 296 | 0.0 | 1.6 | 0.00 | 0.00 | 0.00 | 80 | 1012.5 |
| 20260906010306 | 25 | 135 | 0.0 | 1.6 | 0.00 | 0.00 | 0.00 | 78 | 1012.4 |
| 20260906005306 | 26 | 227 | 0.0 | 1.6 | 0.00 | 0.00 | 0.00 | 77 | 1012.4 |
| 20260906004306 | 26 | 190 | 1.6 | 3.2 | 0.00 | 0.00 | 0.00 | 77 | 1012.3 |
| 20260906003305 | 26 | 34 | 1.6 | 3.2 | 0.00 | 0.00 | 0.00 | 75 | 1012.3 |
| 20260906002806 | 27 | 298 | 3.2 | 3.2 | 0.00 | 0.00 | 0.00 | 73 | 1012.5 |
| 20260906002306 | 27 | 129 | 1.6 | 1.6 | 0.00 | 0.00 | 0.00 | 74 | 1012.4 |
| 20260906001805 | 27 | 186 | 1.6 | 1.6 | 0.00 | 0.00 | 0.00 | 75 | 1012.5 |
| 20260906001306 | 27 | 310 | 0.0 | 1.6 | 0.00 | 0.00 | 0.00 | 76 | 1012.5 |
| 20260906000806 | 27 | 307 | 1.6 | 3.2 | 0.00 | 0.00 | 0.00 | 74 | 1012.6 |
| 20260906000306 | 27 | 300 | 1.6 | 3.2 | 0.00 | 0.00 | 0.00 | 74 | 1013.0 |
| 20260905235306 | 27 | 325 | 3.2 | 3.2 | 0.00 | 0.00 | 0.00 | 73 | 1013.3 |
| 20260905234805 | 27 | 125 | 1.6 | 3.2 | 0.00 | 0.00 | 0.00 | 73 | 1013.4 |
| 20260905233806 | 28 | 299 | 3.2 | 9.7 | 0.00 | 0.00 | 0.00 | 69 | 1013.4 |
| 20260905233306 | 28 | 115 | 1.6 | 3.2 | 0.00 | 0.00 | 0.00 | 70 | 1013.4 |
| 20260905232805 | 29 | 26 | 1.6 | 3.2 | 0.00 | 0.00 | 0.00 | 69 | 1013.3 |
| 20260905231805 | 29 | 102 | 1.6 | 3.2 | 0.00 | 0.00 | 0.00 | 66 | 1013.1 |
| 20260905231313 | 30 | 270 | 1.6 | 3.2 | 0.00 | 0.00 | 0.08 | 65 | 1013.1 |